ARIANE 1 DEB, 40781

Orbit data source: Space-Track

ARIANE 1 DEB, 40781 is space debris in HEO originally from a launch on Mon, 24 Dec 1979 UTC launched from the French Guiana (FRGUI). Debris objects in space refer to the collection of defunct objects orbiting the Earth. Examples of debris include non-operational satellites, rocket bodies, and fragments generated from explosions, collisions, or faulty payload assembly.

Loading next visibility...
Identifier
40781, 1979-104AJ
Orbit
HEO
Country
Flag of FRFR
Related business
Manufacturer
Unknown
Mission
Spacecraft
Bus & Motor
Unknown
Mass
Unknown
Launch date (UTC)
1979-12-24 (46 years ago)
Launch vehicle
Unknown
Launch site
French Guiana (FRGUI)
Object type
Payload
Rocket body
Debris
Shape & HBR
Unknown
Radar Cross Section
Medium (>0.1 m² and <1 m²)

Expand to show TLE details & history
Last TLE update: 6 days ago

TLE from 6 days ago
0 ARIANE 1 DEB
1 40781U 79104AJ  25254.27869708  .00000504  00000-0  24217-2 0  9993
2 40781  18.8834 171.1858 6482562 198.6147 117.6474  3.16285852 14605
Epoch: 2025-09-11T06:41Z
TLE epoch observation values (Epoch: 2025-09-11T06:41:19.427Z)
Latitude
0.00015°
Longitude
80.34311°
Altitude
23,114.003 km
Speed
2.588 km/s
True Right ascension
11h 24m 52s
True Declination
0° 00' 01"
Sunlit
Object was in daylight at epoch
Visualization orbit readout
Latitude
Unknown
Longitude
Unknown
Altitude
Unknown
Speed
Unknown
Apparent Right ascension
Unknown
Apparent Declination
Unknown
Sunlit
N/A
Visualization observer readout
Local Sidereal Time
14:31:54
Azimuth
Unknown
Elevation
Unknown
Doppler factor
Unknown
Orbital elements
Apogee altitude
25,941.664 km
Perigee altitude
519.025 km
Semi-major axis
19,608.481 km
Eccentricity
0.64826
Inclination
18.8834°
RAAN
171.1858°
Arg. of periapsis
198.6147°
True anomaly
161.42621°
Mean anomaly
117.6474°
Eccentric anomaly
141.01452°
Mean motion
0.79046 °/min
Orbital period
455.43 mins
BSTAR
0.0024217
Loading maneuver chart data...
Computing Atmospheric mass density...
Loading historical data...
Loading historical data...
Loading historical data...
Loading historical data...
Loading historical data...
Loading historical data...
Loading historical data...

Documentation

Showing up to 5 results
|